Tracking 18945 objects as of 19-Jan-2018
HD Live streaming from Space Station
objects crossing your sky now

ARIANE 5 R/B

Track ARIANE 5 R/B now!


NORAD ID: 33754
Int'l Code: 2009-008F
Perigee: 301.7 km
Apogee: 34,354.1 km
Inclination: 2.5 °
Period: 605.1 minutes
Semi major axis: 23698 km
RCS: 21.2292 m2 (large)
Launch date: February 12, 2009
Source: France (FR)
Launch site: FRENCH GUIANA (FRGUI)

Note: This is a ROCKET BODY
aabbcc
Your satellite tracking list
Your tracking list is empty




NASA's NSSDC Master Catalog

Two Line Element Set (TLE):
1 33754U 09008F   18018.70128127  .00000167  00000-0  10587-3 0  9993
2 33754   2.4840 336.3050 7184373  74.0158 349.3261  2.37963546 75847
Source of the keplerian elements: AFSPC